Meteo pe oră la Bolshie Ozerki

Astăzi, 10 Mai, Luni

Timp Temperatura Precipitaţii Vânt Presiune Umiditate
00:00 +2°C° 0 mm 3 m/s 743 mmHg 86%
01:00 +1°C° 0 mm 4 m/s 743 mmHg 86%
02:00 0°C° 0 mm 4 m/s 744 mmHg 86%
03:00 +1°C° 0 mm 4 m/s 744 mmHg 84%
04:00 +1°C° 0 mm 4 m/s 744 mmHg 82%
05:00 +1°C° 0 mm 5 m/s 745 mmHg 80%
06:00 +3°C° 0 mm 5 m/s 745 mmHg 73%
07:00 +5°C° 0 mm 6 m/s 745 mmHg 66%
08:00 +6°C° 0 mm 7 m/s 746 mmHg 58%
09:00 +8°C° 0 mm 7 m/s 746 mmHg 54%
10:00 +9°C° 0 mm 8 m/s 745 mmHg 50%
11:00 +10°C° 0 mm 8 m/s 745 mmHg 45%
12:00 +10°C° 0 mm 8 m/s 745 mmHg 47%
13:00 +10°C° 0 mm 8 m/s 745 mmHg 48%
14:00 +11°C° 0 mm 8 m/s 745 mmHg 49%
15:00 +10°C° 0 mm 8 m/s 745 mmHg 53%
16:00 +10°C° 0 mm 8 m/s 745 mmHg 57%
17:00 +9°C° 0 mm 8 m/s 744 mmHg 61%
18:00 +9°C° 0 mm 7 m/s 745 mmHg 62%
19:00 +8°C° 0 mm 7 m/s 745 mmHg 63%
20:00 +8°C° 0 mm 7 m/s 745 mmHg 64%
21:00 +8°C° 0 mm 7 m/s 745 mmHg 66%
22:00 +6°C° 0 mm 7 m/s 745 mmHg 69%
23:00 +6°C° 0 mm 7 m/s 745 mmHg 72%

Mâine, 11 Mai, Marţi

Timp Temperatura Precipitaţii Vânt Presiune Umiditate
00:00 +6°C° 0 mm 7 m/s 744 mmHg 75%
01:00 +7°C° 0 mm 6 m/s 744 mmHg 78%
02:00 +5°C° 0 mm 6 m/s 744 mmHg 81%
03:00 +7°C° 0 mm 6 m/s 744 mmHg 82%
04:00 +7°C° 0 mm 6 m/s 744 mmHg 83%
05:00 +7°C° 0 mm 6 m/s 744 mmHg 84%
06:00 +8°C° 0 mm 7 m/s 744 mmHg 83%
07:00 +9°C° 0 mm 7 m/s 744 mmHg 82%
08:00 +10°C° 0 mm 8 m/s 744 mmHg 81%
09:00 +12°C° 0 mm 8 m/s 744 mmHg 77%
10:00 +15°C° 0 mm 8 m/s 744 mmHg 74%
11:00 +17°C° 0 mm 9 m/s 744 mmHg 70%
12:00 +16°C° 0.3 mm 8 m/s 744 mmHg 75%
13:00 +15°C° 0.3 mm 7 m/s 744 mmHg 79%
14:00 +14°C° 0.3 mm 6 m/s 744 mmHg 84%
15:00 +13°C° 0.3 mm 5 m/s 744 mmHg 84%
16:00 +13°C° 0.3 mm 5 m/s 745 mmHg 84%
17:00 +12°C° 0.3 mm 4 m/s 745 mmHg 84%
18:00 +11°C° 0 mm 4 m/s 745 mmHg 85%
19:00 +10°C° 0 mm 3 m/s 746 mmHg 86%
20:00 +9°C° 0 mm 3 m/s 746 mmHg 87%
21:00 +8°C° 0 mm 3 m/s 746 mmHg 88%
22:00 +7°C° 0 mm 3 m/s 747 mmHg 89%
23:00 +7°C° 0 mm 3 m/s 747 mmHg 91%

Poimâine, 12 Mai, Miercuri

Timp Temperatura Precipitaţii Vânt Presiune Umiditate
00:00 +6°C° 0 mm 2 m/s 747 mmHg 91%
01:00 +6°C° 0 mm 2 m/s 747 mmHg 92%
02:00 +6°C° 0 mm 2 m/s 747 mmHg 93%
03:00 +6°C° 0 mm 2 m/s 746 mmHg 92%
04:00 +6°C° 0 mm 2 m/s 746 mmHg 92%
05:00 +7°C° 0 mm 3 m/s 746 mmHg 91%
06:00 +8°C° 0 mm 3 m/s 746 mmHg 87%
07:00 +8°C° 0 mm 4 m/s 745 mmHg 83%
08:00 +9°C° 0 mm 5 m/s 745 mmHg 79%
09:00 +8°C° 0.5 mm 4 m/s 744 mmHg 83%
10:00 +9°C° 0.5 mm 3 m/s 744 mmHg 87%
11:00 +8°C° 0.5 mm 2 m/s 743 mmHg 91%
12:00 +8°C° 1.6 mm 2 m/s 743 mmHg 91%
13:00 +8°C° 1.6 mm 2 m/s 742 mmHg 91%
14:00 +7°C° 1.6 mm 3 m/s 742 mmHg 91%
15:00 +8°C° 0.1 mm 3 m/s 742 mmHg 88%
16:00 +8°C° 0.1 mm 3 m/s 742 mmHg 85%
17:00 +9°C° 0.1 mm 3 m/s 742 mmHg 82%
18:00 +7°C° 0 mm 4 m/s 742 mmHg 85%
19:00 +7°C° 0 mm 4 m/s 742 mmHg 89%
20:00 +6°C° 0 mm 4 m/s 742 mmHg 93%
21:00 +6°C° 0 mm 5 m/s 742 mmHg 93%
22:00 +7°C° 0 mm 6 m/s 741 mmHg 92%
23:00 +7°C° 0 mm 6 m/s 741 mmHg 92%

13 Mai, Joi

Timp Temperatura Precipitaţii Vânt Presiune Umiditate
00:00 +8°C° 0.4 mm 6 m/s 741 mmHg 93%
01:00 +8°C° 0.4 mm 5 m/s 741 mmHg 94%
02:00 +8°C° 0.4 mm 5 m/s 741 mmHg 95%
03:00 +8°C° 0.3 mm 4 m/s 741 mmHg 95%
04:00 +8°C° 0.3 mm 4 m/s 741 mmHg 96%
05:00 +9°C° 0.3 mm 3 m/s 741 mmHg 97%
06:00 +10°C° 0.1 mm 4 m/s 741 mmHg 91%
07:00 +12°C° 0.1 mm 4 m/s 741 mmHg 86%
08:00 +13°C° 0.1 mm 4 m/s 741 mmHg 81%
09:00 +14°C° 0.1 mm 4 m/s 741 mmHg 76%
10:00 +17°C° 0.1 mm 4 m/s 741 mmHg 71%
11:00 +17°C° 0.1 mm 5 m/s 741 mmHg 65%
12:00 +17°C° 0.1 mm 5 m/s 741 mmHg 64%
13:00 +19°C° 0.1 mm 5 m/s 741 mmHg 63%
14:00 +19°C° 0.1 mm 5 m/s 741 mmHg 62%
15:00 +19°C° 0.1 mm 4 m/s 741 mmHg 65%
16:00 +19°C° 0.1 mm 3 m/s 741 mmHg 69%
17:00 +18°C° 0.1 mm 3 m/s 741 mmHg 73%
18:00 +17°C° 0 mm 3 m/s 741 mmHg 76%
19:00 +16°C° 0 mm 2 m/s 741 mmHg 79%
20:00 +15°C° 0 mm 2 m/s 741 mmHg 82%
21:00 +14°C° 0 mm 2 m/s 741 mmHg 82%
22:00 +13°C° 0 mm 3 m/s 741 mmHg 83%
23:00 +12°C° 0 mm 3 m/s 741 mmHg 83%

14 Mai, Vineri

Timp Temperatura Precipitaţii Vânt Presiune Umiditate
00:00 +12°C° 0 mm 3 m/s 741 mmHg 85%
01:00 +12°C° 0 mm 3 m/s 741 mmHg 87%
02:00 +12°C° 0 mm 3 m/s 740 mmHg 89%
03:00 +12°C° 0 mm 3 m/s 740 mmHg 90%
04:00 +12°C° 0 mm 4 m/s 740 mmHg 92%
05:00 +13°C° 0 mm 4 m/s 740 mmHg 93%
06:00 +14°C° 0 mm 4 m/s 740 mmHg 88%
07:00 +16°C° 0 mm 5 m/s 740 mmHg 83%
08:00 +19°C° 0 mm 6 m/s 740 mmHg 78%
09:00 +20°C° 0 mm 6 m/s 739 mmHg 75%
10:00 +21°C° 0 mm 7 m/s 739 mmHg 71%
11:00 +22°C° 0 mm 7 m/s 739 mmHg 67%
12:00 +23°C° 0 mm 7 m/s 739 mmHg 67%
13:00 +23°C° 0 mm 7 m/s 739 mmHg 67%
14:00 +24°C° 0 mm 7 m/s 738 mmHg 67%
15:00 +23°C° 0 mm 7 m/s 738 mmHg 69%
16:00 +23°C° 0 mm 6 m/s 738 mmHg 70%
17:00 +23°C° 0 mm 6 m/s 738 mmHg 72%
18:00 +22°C° 0.1 mm 5 m/s 737 mmHg 75%
19:00 +21°C° 0.1 mm 5 m/s 737 mmHg 79%
20:00 +20°C° 0.1 mm 5 m/s 737 mmHg 82%
21:00 +19°C° 0.1 mm 4 m/s 737 mmHg 85%
22:00 +18°C° 0.1 mm 3 m/s 737 mmHg 88%
23:00 +17°C° 0.1 mm 3 m/s 737 mmHg 90%

15 Mai, Sâmbătă

Timp Temperatura Precipitaţii Vânt Presiune Umiditate
00:00 +17°C° 1.1 mm 4 m/s 737 mmHg 92%
01:00 +16°C° 1.1 mm 5 m/s 737 mmHg 94%
02:00 +16°C° 1.1 mm 5 m/s 737 mmHg 95%
03:00 +15°C° 0.8 mm 4 m/s 737 mmHg 94%
04:00 +16°C° 0.8 mm 3 m/s 737 mmHg 93%
05:00 +16°C° 0.8 mm 2 m/s 737 mmHg 92%
06:00 +17°C° 0 mm 2 m/s 737 mmHg 87%
07:00 +19°C° 0 mm 3 m/s 737 mmHg 82%
08:00 +20°C° 0 mm 3 m/s 737 mmHg 78%
09:00 +20°C° 1 mm 4 m/s 737 mmHg 78%
10:00 +21°C° 1 mm 4 m/s 737 mmHg 78%
11:00 +21°C° 1 mm 5 m/s 737 mmHg 78%
12:00 +21°C° 0.9 mm 4 m/s 737 mmHg 77%
13:00 +22°C° 0.9 mm 3 m/s 736 mmHg 75%
14:00 +23°C° 0.9 mm 2 m/s 736 mmHg 73%
15:00 +20°C° 3.2 mm 3 m/s 736 mmHg 79%
16:00 +19°C° 3.2 mm 4 m/s 736 mmHg 86%
17:00 +17°C° 3.2 mm 4 m/s 736 mmHg 92%
18:00 +17°C° 0.1 mm 4 m/s 736 mmHg 92%
19:00 +16°C° 0.1 mm 3 m/s 736 mmHg 92%
20:00 +16°C° 0.1 mm 2 m/s 736 mmHg 92%
21:00 +15°C° 0 mm 2 m/s 736 mmHg 92%
22:00 +15°C° 0 mm 2 m/s 736 mmHg 91%
23:00 +14°C° 0 mm 1 m/s 736 mmHg 91%
Arată mai mult

Formular de consimțământ

Meteoprog și furnizorii noștri de servicii pot stoca și accesa date personale, precum cookies, identificatori de dispozitiv sau alte tehnologii similare pe dispozitivul dumneavoastră și procesa astfel de date pentru a personaliza conținutul și reclamele, dar și pentru a oferi caracteristici de social media și pentru a analiza traficul.

  • Stocarea și/sau accesarea informațiilor pe dispozitivul dumneavoastră

    Cookies, identificatori de dispozitiv sau alte informații pot fi stocate sau accesate pe dispozitiv în scopurile indicate mai sus.

  • Reclame și conținut personalizat, evaluarea reclamelor și a conținutului, informații despre audiențe și dezvoltarea produselor

    Reclamele și conținutul pot fi personalizate pe baza unui profil. Pot fi adăugate date suplimentare pentru a personaliza mai bine reclamele și conținutul. Performanța reclamelor și conținutului poate fi măsurată. Pot fi obținute informații despre utilizatorii care au văzut reclamele și conținutul. Aceste date pot fi utilizate pentru a dezvolta sau îmbunătăți experiența utilizatorilor, sistemele și software-ul.

Dând clic pe ‘Sunt de acord’, permiteți utilizarea cookie-urilor menționate, a identificatorilor de dispozitiv, balizelor web sau altor tehnologii similare. Setările pot fi modificate din browser-ul dispozitivului dumneavoastră.

În anumite scopuri, interesele legitime pot prima asupra consimțământului. Puteți citi mai multe informații în acest sens în Politica privind Confidențialitatea Datelor și Cookie.